Location: Newark
(58.8333°N, 23.5833°E)
Time: 10:04:55
(UTC+00:00)

A-11 Canister half - Pass Details

Date: 19 November 2019
Orbit: 1515 x 1684 km, 47.2° (Epoch: 14 December)

Event Time Altitude Azimuth Distance (km) Brightness Sun altitude
Rises 20:09:45 0° 265° (W) 4,936 12.0 -45.0°
Reaches altitude 10° 20:13:10 10° 259° (W) 3,951 11.4 -45.3°
Enters shadow 20:16:55 24° 245° (WSW) 2,994 10.5 -45.6°
Maximum altitude 20:22:18 40° 195° (SSW) 2,310 - -46.1°
Drops below altitude 10° 20:31:19 10° 131° (SE) 3,902 - -46.8°
Sets 20:34:40 0° 124° (SE) 4,868 - -47.0°
